Flag for United Kingdom Weather past 2 weeks in Loughton, England, United Kingdom

Now
69 °F

Mild.


Feels Like: 69 °F
Forecast: 64 / 80 °F
Wind: 7 mph from Northwest

Location: Gravesend-Broadness

Current Time: Jul 25, 2014 at 7:42:19 PM

Latest Report: Jul 25, 2014 at 6:00 PM


Visibility: N/A

Pressure: 29.99 "Hg

Humidity: 74%

Dew point: 61 °F

Location of LoughtonLocation

Historic Weather in Loughton — Graph

°F

Loughton temperature yesterday

Maximum temperature yesterday: 81 °F (at 1:00 PM)
Minimum temperature yesterday: 60 °F (at 2:00 AM)
Average temperature yesterday: 70 °F

Past Weeks' High & Low Weather Summary

 TemperatureHumidityPressure
High89 °F (Jul 18, 3:00 PM)98% (Jul 12, 4:00 AM)30.21 "Hg (Jul 12, 4:00 AM)
Low53 °F (Jul 16, 5:00 AM)34% (Jul 18, 6:00 PM)29.71 "Hg (Jul 13, 3:00 PM)
Average68 °F76%29.99 "Hg
* Reported Jul 10 6:00 PM — Jul 25 6:00 PM, Loughton, Weather by CustomWeather, © 2014

Note: Actual official high and low records may vary slightly from our data, if they occured in-between our weather recording intervals... More about our weather records

Advertising

Loughton weather history for previous 24 hours

 ConditionsComfort  
Time TempWeatherWind HumidityBarometerVisibility
6:00 PM
Jul 25
69 °FMild.7 mph74%29.99 "HgN/A
5:00 PM72 °FMild.8 mph72%30.00 "HgN/A
4:00 PM76 °FMild.5 mph61%30.00 "HgN/A
3:00 PM73 °FMild.2 mph72%30.00 "HgN/A
2:00 PM66 °FMild.3 mph81%30.01 "HgN/A
1:00 PM80 °FWarm.10 mph54%30.00 "HgN/A
12:00 PM80 °FWarm.8 mph52%30.02 "HgN/A
11:00 AM77 °FMild.9 mph61%30.03 "HgN/A
10:00 AM71 °FMild.2 mph74%30.03 "HgN/A
9:00 AM68 °FMild.6 mph84%30.04 "HgN/A
8:00 AM64 °FMild.5 mph90%30.03 "HgN/A
7:00 AM63 °FMild.2 mph91%30.03 "HgN/A
6:00 AM62 °FCool.3 mph92%30.02 "HgN/A
5:00 AM61 °FCool.3 mph93%30.02 "HgN/A
4:00 AM62 °FCool.5 mph92%30.01 "HgN/A
3:00 AM62 °FCool.5 mph89%30.02 "HgN/A
2:00 AM63 °FMild.6 mph85%30.03 "HgN/A
12:00 AM65 °FMild.2 mph76%30.04 "HgN/A
11:00 PM
Jul 24
67 °FMild.7 mph72%30.04 "HgN/A
9:00 PM70 °FMild.9 mph70%30.02 "HgN/A
8:00 PM73 °FMild.10 mph62%30.01 "HgN/A
7:00 PM75 °FMild.13 mph51%30.01 "HgN/A
Weather by CustomWeather, © 2014

See weather overviewHow to use our weather pages